Location: Brad
(46.1333°N, 22.7833°E)
Time: 12:50:01
(UTC+00:00)

Cosmos 1844 Rocket - Visible Passes

Search period start: 25 September 2023 00:00
Search period end: 05 October 2023 00:00
Orbit: 825 x 843 km, 71.0° (Epoch: 24 September)

Date Brightness Start Highest point End Pass type
(mag) Time Alt. Az. Time Alt. Az. Time Alt. Az.
25 Sep 5.3 18:25:22 10° WNW 18:28:43 16° W 18:32:04 10° SW visible
26 Sep 5.3 18:07:47 10° WNW 18:11:27 18° W 18:15:06 10° SW visible
27 Sep 5.3 17:50:15 10° NW 17:54:10 20° W 17:58:05 10° SW visible
28 Sep 5.2 17:32:44 10° NW 17:36:53 22° W 17:41:02 10° SSW visible
29 Sep 5.1 17:15:16 10° NW 17:19:37 24° WSW 17:23:57 10° SSW visible
30 Sep 5.1 16:57:47 10° NW 17:02:20 26° WSW 17:06:51 10° SSW visible
01 Oct 5.0 16:40:20 10° NW 16:45:02 29° WSW 16:49:44 10° SSW visible
